Location: Ab? ar R?sh Ba?r?
(24.1861°N, 32.8847°E)
Time: 11:24:15
(UTC+00:00)

CZ-4C R/B - Pass Details

Date: 24 October 2021
Orbit: 597 x 1405 km, 63.4° (Epoch: 04 December)

Event Time Altitude Azimuth Distance (km) Brightness Sun altitude
Rises 17:22:10 0° 215° (SW) 2,831 5.4 -29.7°
Reaches altitude 10° 17:24:20 10° 219° (SW) 1,957 4.5 -30.2°
Enters shadow 17:26:41 31° 232° (SW) 1,104 3.2 -30.7°
